{"data":{"norad_id":49444,"epoch":"2026-09-20T03:37:57.383040Z","epoch_age_seconds":71439,"freshness":"FRESH","line1":"1 49444U 21104AN  26263.15135860  .00000555  00000+0  29628-4 0  9996","line2":"2 49444  53.1610  50.4840 0001026  85.6930 274.4188 15.31707096268340","mean_motion":15.31707096,"eccentricity":0.0001026,"inclination_deg":53.161,"raan_deg":50.484,"arg_perigee_deg":85.693,"mean_anomaly_deg":274.4188,"bstar":2.9628e-5,"rev_number":26834,"period_min":94.012752422478,"perigee_km":470.01614989112,"apogee_km":471.42153511,"semimajor_km":6848.8558425006,"source":"CELESTRAK","updated_at":"2026-09-20T09:00:39.399417Z"}}